Temp
14 14 14 14 13 13 13 13 13 13 12 12 11 11 10 9 9 9 9 9 8 8 8 8 7 7 7 7 7 8 7 7 6 6 6 5 5 5 5 5 5 4 4 4 4 4 4 4 4 4 4 5 5 5 5 5 6 6 6 6 6 7 6 6 6 5 5 5 5 5 5 5 5 5 5 4 4 4 5 5 5 5 6 6 6
13 13 13 14 13 13 13 13 13 13 13 12 12 11 11 10 9 9 8 9 9 8 8 8 8 7 7 7 8 8 8 7 6 6 6 5 5 5 5 4 4 4 4 4 4 4 4 4 4 4 4 5 5 5 5 5 6 6 6 6 6 6 6 6 6 5 5 5 4 4 5 5 5 5 5 4 4 4 4 5 5 5 5 5 6
13 14 14 14 14 13 13 13 13 13 13 13 12 12 12 11 10 9 9 9 9 8 8 8 8 8 7 7 7 8 8 7 7 6 6 5 5 5 5 5 5 4 4 4 4 4 4 4 4 4 4 5 5 5 5 5 5 6 6 6 6 6 6 6 6 6 5 4 4 4 5 5 5 5 4 4 4 3 3 4 4 5 5 5 5
14 14 14 14 14 14 13 13 13 13 13 13 12 12 12 11 11 10 9 9 9 9 8 8 8 8 7 7 7 8 8 8 7 6 6 5 5 5 5 5 5 5 5 4 4 4 4 4 4 4 4 4 5 5 5 5 5 5 5 5 5 6 6 6 6 5 5 4 4 4 5 5 5 5 4 4 4 4 3 3 3 4 5 5 5
14 14 14 14 14 14 13 13 13 13 13 13 12 12 12 11 11 10 10 10 9 9 8 8 8 8 8 7 8 8 8 8 7 7 6 5 5 5 5 5 5 5 5 5 5 4 4 4 4 4 4 4 4 5 5 5 5 5 5 5 5 5 5 6 5 5 4 4 4 4 4 5 5 5 4 4 4 4 4 3 3 4 4 5 5
14 14 14 14 14 14 13 13 13 13 13 13 12 12 12 11 11 11 10 10 9 9 9 8 8 8 8 8 8 8 8 8 7 7 6 5 5 5 5 5 5 5 5 5 5 4 4 4 4 4 4 4 4 4 5 5 5 5 5 5 5 5 5 5 5 5 4 3 3 4 4 4 5 5 4 4 4 4 4 4 4 4 4 4 4
14 14 14 14 14 14 13 13 13 13 13 13 12 12 12 12 11 11 11 10 10 9 9 8 8 8 8 8 8 8 8 8 8 7 6 6 5 5 5 5 5 5 5 5 5 4 4 4 4 4 4 4 4 4 4 5 5 5 5 5 5 5 5 5 5 5 4 4 4 4 4 4 4 5 5 4 4 4 4 4 4 4 4 3 3
14 14 14 14 14 13 13 13 13 13 13 12 12 12 12 12 12 11 11 11 10 10 9 8 8 8 8 8 8 8 8 8 8 7 7 6 5 5 5 5 5 5 4 4 5 4 4 4 4 4 4 4 4 4 4 4 5 5 4 4 4 5 5 5 5 5 4 4 4 4 4 4 5 5 5 5 4 4 4 4 4 3 3 3 3
15 14 15 14 14 13 13 13 13 13 13 13 12 12 12 12 12 12 12 11 11 10 10 9 9 8 8 8 8 8 8 8 8 7 7 6 6 5 5 5 5 5 4 4 5 4 4 4 4 4 4 4 4 4 4 4 5 4 4 4 4 4 5 5 5 5 4 4 4 4 4 4 5 5 5 4 4 4 4 4 4 4 3 3 3
15 15 15 14 14 13 13 13 13 13 13 13 13 12 12 12 12 12 12 11 11 10 10 9 9 9 9 8 8 8 8 8 8 7 7 6 6 5 5 5 5 5 5 5 5 5 4 4 4 4 4 4 4 4 4 4 4 4 4 4 4 4 4 5 4 4 4 4 4 4 4 4 4 4 4 4 4 4 4 4 4 4 4 3 3
15 15 15 14 14 14 13 13 13 13 13 13 13 12 12 12 12 12 12 11 11 11 10 10 10 9 9 9 8 8 8 8 8 8 7 7 6 6 5 5 5 5 5 5 5 5 4 4 4 4 4 4 4 4 4 4 4 4 4 4 4 4 4 4 4 4 4 4 3 3 4 4 4 4 4 4 4 4 4 4 4 4 4 3 3
15 15 15 14 14 14 14 14 13 13 13 13 13 12 12 12 12 12 12 12 11 11 10 10 10 9 9 9 9 8 8 8 8 8 7 7 6 6 6 5 5 5 5 5 5 5 4 4 4 4 4 4 4 4 4 4 4 4 4 4 4 4 4 4 4 4 4 4 3 3 3 4 4 4 4 4 4 4 4 4 4 4 3 3 3
15 15 15 15 15 15 14 14 14 13 13 13 13 13 13 13 12 12 12 11 11 11 11 10 10 9 9 9 9 9 9 8 8 8 8 7 6 6 6 5 5 5 5 5 5 5 5 4 4 4 4 4 4 4 4 4 4 4 4 4 4 4 4 4 4 4 4 4 4 4 4 4 4 4 4 4 4 4 4 4 4 4 3 3 3
15 15 15 15 15 15 14 14 14 14 13 13 13 13 13 13 12 12 12 11 11 11 11 10 10 9 9 9 9 9 9 9 8 8 8 7 7 6 6 6 5 5 5 5 5 5 5 4 4 4 4 4 4 4 4 4 4 4 4 4 4 4 4 4 4 4 4 4 4 4 4 4 5 4 4 4 4 4 4 4 4 4 3 3 3
16 16 15 15 15 15 15 14 14 14 13 13 13 13 13 12 12 12 12 12 11 11 11 10 10 10 9 9 9 9 9 9 9 8 8 8 7 7 6 6 5 5 5 5 5 5 5 4 4 4 4 4 4 4 4 4 4 4 4 4 4 4 4 4 4 4 4 4 4 4 4 4 4 4 4 4 4 4 4 4 4 4 4 3 3
16 16 16 15 15 15 15 15 14 14 14 13 13 13 13 12 12 12 12 12 11 11 11 10 10 10 9 8 8 9 9 9 9 8 8 8 7 7 6 6 5 5 5 5 5 5 5 4 4 4 4 4 4 4 4 4 4 4 4 4 4 4 4 4 4 4 4 4 4 4 4 4 4 4 4 4 4 4 4 4 4 4 4 3 3
16 16 15 15 15 15 15 14 14 14 14 13 13 13 13 12 12 12 12 12 12 11 10 10 10 9 9 8 8 9 9 9 9 8 8 8 7 7 7 6 6 5 5 5 5 5 5 4 4 4 4 4 4 4 3 4 4 4 4 4 4 4 4 4 4 4 3 4 4 4 4 4 4 4 4 4 4 4 4 4 4 4 4 4 3
15 15 15 15 14 14 14 14 14 14 14 13 13 13 13 12 12 12 12 11 11 11 10 10 10 9 8 8 8 9 9 9 9 8 8 8 7 7 7 6 6 5 5 5 5 5 5 5 4 4 4 4 4 3 3 4 4 4 4 4 4 4 4 4 4 4 4 3 3 4 4 4 4 4 4 4 4 4 4 4 4 4 4 4 4
14 14 14 14 14 14 14 14 13 13 13 13 13 13 13 12 12 12 11 11 11 11 11 10 10 9 8 8 8 8 9 9 8 8 8 8 8 7 7 7 6 5 5 5 5 5 5 5 4 4 4 4 4 3 3 3 4 4 4 4 4 4 4 4 4 4 4 4 4 4 4 4 4 4 4 4 4 4 4 4 4 4 4 4 4
14 15 14 14 14 14 14 14 14 13 13 13 13 12 12 12 12 12 11 11 11 11 11 10 10 9 9 8 8 8 8 8 8 8 8 8 8 7 7 7 6 6 5 5 5 5 5 5 4 4 4 4 4 3 3 3 3 4 4 4 4 4 4 4 4 4 4 4 4 3 3 4 4 5 5 4 4 4 4 4 4 4 4 4 4
15 15 14 14 14 14 14 14 14 14 13 13 13 13 12 12 12 12 11 11 10 10 10 10 10 9 9 8 8 8 7 8 8 8 8 8 7 7 7 7 6 6 5 5 5 5 4 4 4 3 4 4 4 3 3 3 3 3 3 4 4 3 4 4 4 4 4 4 3 3 3 4 4 4 5 5 5 4 4 4 4 4 4 4 4
14 14 14 14 14 14 14 14 14 14 13 13 13 13 12 12 12 12 11 11 10 10 10 10 10 9 9 9 8 8 7 7 7 7 7 7 7 7 7 7 6 5 5 5 5 4 4 4 3 3 3 3 3 3 3 3 3 3 3 3 3 3 4 4 4 4 4 4 3 3 3 4 4 4 4 4 5 5 4 4 4 4 4 4 4
14 14 14 14 14 14 14 14 14 14 14 13 13 13 12 12 12 11 11 10 10 10 10 10 10 9 9 9 8 8 7 7 7 7 7 7 7 7 7 7 6 5 5 5 5 4 4 4 3 3 3 3 3 3 3 3 3 3 4 4 3 3 3 4 4 4 4 4 3 3 4 4 4 4 4 4 4 4 4 4 4 4 4 4 4
13 13 13 14 13 13 13 13 13 14 13 13 13 13 12 12 11 11 10 10 10 9 9 9 9 9 9 9 8 8 7 7 7 6 6 7 7 7 7 7 6 5 5 5 5 4 4 4 3 3 3 3 3 3 3 3 3 3 4 4 4 3 3 4 4 4 4 4 3 3 3 3 3 4 4 4 4 4 4 4 4 4 4 4 4
13 13 13 13 13 13 13 13 13 13 13 13 13 13 12 11 11 11 10 10 10 9 9 9 9 9 9 9 8 8 7 7 7 6 6 6 6 7 7 6 6 5 5 5 5 4 4 4 3 3 2 3 3 3 3 3 3 3 4 4 4 3 3 4 3 4 4 4 3 3 3 3 3 3 3 3 3 3 4 4 4 4 4 4 4
12 12 12 13 13 13 13 13 13 13 13 13 13 13 12 12 11 11 10 10 10 10 9 9 9 9 9 9 8 7 7 7 7 6 6 6 6 6 6 6 5 5 5 5 4 4 4 4 4 3 2 2 3 3 3 3 3 3 4 4 4 3 3 3 3 4 4 4 3 3 3 3 3 3 3 3 3 3 3 4 4 4 4 4 4
12 12 12 12 12 12 12 12 12 12 12 13 13 13 13 13 12 12 11 11 10 10 9 9 9 9 9 9 9 8 7 7 6 6 6 6 6 6 6 6 5 5 5 5 4 4 4 4 4 3 2 2 3 3 3 3 3 3 3 4 3 3 3 3 3 4 4 4 3 3 3 3 3 3 3 3 3 3 3 3 4 4 4 4 4
11 11 11 11 11 11 11 11 11 11 12 12 12 12 13 13 12 12 11 11 10 10 10 9 9 9 9 9 9 8 7 7 7 7 6 6 6 6 6 6 5 5 5 4 4 4 4 4 4 3 2 2 3 3 3 3 2 3 3 3 3 3 3 3 3 4 4 4 4 3 3 3 3 4 4 4 3 3 3 3 4 4 4 4 4
9 9 9 10 10 10 10 10 10 10 11 11 11 12 12 12 12 11 11 10 10 9 9 9 9 9 9 9 9 8 8 8 8 7 6 6 6 6 6 5 5 5 5 4 4 4 4 4 4 3 2 2 3 3 3 2 2 2 3 3 3 3 3 3 3 3 3 3 3 3 3 3 3 3 3 4 3 3 3 3 4 4 4 4 4
8 8 8 8 9 9 9 9 9 10 10 10 10 11 11 11 11 10 10 10 10 9 9 9 9 8 8 8 8 8 8 8 7 7 6 5 5 5 5 5 5 5 4 4 4 4 4 4 4 3 3 3 3 3 3 2 2 2 2 2 3 3 3 3 3 3 3 3 3 3 3 3 4 3 3 3 3 3 2 3 3 3 4 4 4
7 7 7 8 8 8 8 8 9 9 9 9 10 10 10 10 10 10 10 10 9 9 8 8 8 8 8 7 7 7 7 7 6 6 6 5 5 5 5 5 5 5 4 4 4 4 4 4 4 3 3 3 2 3 3 3 2 2 2 2 2 3 3 3 3 3 3 3 3 3 3 3 3 4 3 3 3 3 2 3 3 3 4 4 4
7 7 7 7 7 7 7 8 8 8 8 9 9 9 10 10 10 10 9 9 9 8 8 8 8 8 8 7 7 7 7 7 6 6 5 5 5 5 5 5 5 5 4 4 4 4 4 4 4 3 3 3 2 3 3 3 2 1 1 2 2 2 3 3 3 3 3 3 3 3 3 3 3 3 3 3 3 3 2 2 3 3 4 4 4
6 6 7 7 7 7 7 7 7 8 8 8 8 8 9 9 10 10 10 9 8 8 8 8 8 8 7 7 7 6 6 6 6 6 5 5 5 4 4 5 5 5 4 4 4 4 4 4 4 4 3 3 3 3 3 3 2 1 1 1 2 2 2 2 3 3 3 3 3 3 3 3 3 3 3 3 3 3 2 2 3 3 4 4 4
6 6 6 6 6 7 7 7 7 7 8 8 8 8 8 8 8 9 9 9 9 8 8 8 8 7 7 7 7 6 6 6 6 6 5 5 5 5 4 4 5 5 4 4 4 4 4 4 4 4 3 3 3 3 3 3 2 2 1 1 1 2 2 2 2 3 3 3 3 3 3 3 3 3 3 3 3 3 2 2 2 3 3 4 4
6 6 6 6 6 6 7 7 7 7 7 8 8 8 8 8 8 8 8 8 8 8 8 8 7 7 7 7 7 6 6 6 6 6 6 5 5 5 5 5 5 5 5 5 4 4 4 4 4 4 4 3 3 3 3 3 3 2 1 1 1 1 2 2 2 2 2 2 2 2 2 2 2 3 3 3 3 2 2 2 2 3 3 3 4
6 6 6 6 6 6 7 7 7 7 7 7 8 8 8 8 8 8 8 8 8 8 8 8 7 7 6 6 6 6 6 6 6 6 6 5 5 5 5 5 5 5 5 5 4 4 4 4 4 4 3 3 3 3 3 3 3 2 2 1 1 1 1 2 2 2 2 2 2 2 2 2 2 2 2 2 2 2 2 2 2 2 3 3 3
6 6 6 6 6 6 6 6 6 6 7 7 7 7 8 8 8 8 8 8 8 8 8 8 7 7 6 6 6 6 6 6 6 5 5 5 5 5 5 5 6 6 5 5 5 4 4 4 4 4 3 3 3 3 3 3 3 2 2 1 1 1 1 1 1 2 2 2 2 2 2 2 2 2 2 2 2 2 2 2 2 2 3 3 3
6 6 6 6 6 6 6 6 5 6 6 6 6 6 7 7 7 8 8 8 8 8 8 8 8 7 7 7 6 6 6 5 5 5 5 5 5 5 5 5 5 6 5 5 5 5 4 4 4 4 3 3 3 3 3 3 3 3 2 2 1 1 1 1 1 1 2 2 1 1 2 2 2 2 2 2 2 2 2 2 2 2 3 3 3
6 6 6 6 6 5 5 5 5 5 5 5 5 5 5 5 6 7 7 7 7 7 8 8 8 8 7 7 6 5 5 5 5 5 5 5 5 5 6 5 5 5 5 5 5 5 4 4 4 4 3 3 3 3 3 3 3 3 2 2 2 1 1 1 1 1 1 1 1 1 1 1 2 2 2 2 2 2 2 2 2 2 2 3 3
5 5 6 6 6 5 5 5 4 4 4 4 4 4 4 4 4 5 5 6 6 6 7 7 8 8 7 7 6 5 5 5 6 6 5 5 5 6 6 5 5 5 5 5 5 4 4 4 4 4 3 3 3 3 3 3 3 3 3 3 2 2 1 1 1 1 1 1 1 1 1 1 1 2 2 2 2 2 2 2 2 2 2 2 3
5 5 5 5 5 5 5 4 4 4 3 3 3 3 3 3 3 4 4 4 5 5 6 7 7 7 7 6 6 5 5 5 5 5 5 5 5 6 6 6 6 5 5 5 5 4 4 4 4 4 3 3 3 3 3 3 3 3 3 3 3 2 1 1 0 1 1 1 1 1 1 1 1 1 1 2 2 2 2 2 2 2 2 2 2
5 4 4 4 4 4 3 3 3 3 2 2 2 2 2 2 2 2 3 3 3 4 4 6 7 7 6 6 5 5 5 5 5 5 5 5 5 6 6 6 6 6 6 5 5 4 4 4 4 4 3 3 3 3 4 3 3 3 3 3 3 2 2 1 0 0 1 1 1 1 1 1 1 1 1 1 2 2 2 2 2 2 1 1 1
3 3 3 3 3 3 2 2 1 1 0 0 1 1 1 1 1 2 3 3 3 2 3 4 6 6 6 5 5 5 4 4 4 5 5 5 5 6 6 6 6 6 5 5 5 4 4 4 4 3 3 3 3 3 4 3 3 3 3 3 3 2 2 1 0 0 1 1 1 1 1 1 1 1 1 1 1 2 2 2 2 1 1 1 1
3 3 3 2 2 2 1 1 0 -1 -1 -1 -1 -1 -1 -0 0 1 3 4 4 2 2 3 5 5 6 5 5 4 4 4 4 5 5 5 5 5 6 6 6 5 5 5 4 4 4 4 4 3 3 3 3 3 4 3 3 3 3 3 3 3 2 1 0 0 0 0 1 1 1 1 1 1 1 1 1 1 1 2 1 1 1 1 1
3 2 2 1 1 0 0 -0 -1 -1 -1 -1 -1 -1 -1 -1 -1 -0 1 2 2 2 1 2 4 5 5 5 5 5 5 4 4 4 5 5 5 5 6 6 6 5 5 5 4 4 4 4 3 3 3 3 3 4 4 3 3 3 3 3 3 2 2 1 0 0 0 0 0 0 1 1 1 1 1 1 1 1 1 1 1 1 1 1 1
2 1 1 0 -0 -0 -1 -1 -1 -1 -1 -1 -1 -1 -1 -1 -1 -1 -1 -0 0 -0 0 1 2 4 5 5 5 5 5 4 4 5 5 5 5 5 5 6 5 5 5 5 4 4 4 4 3 3 3 3 4 4 3 3 3 3 3 3 3 2 2 1 0 0 0 0 0 0 0 0 0 0 1 1 1 1 1 1 1 0 0 0 1
1 0 0 -0 -1 -1 -1 -1 -1 -1 -1 -1 -1 -0 -0 -0 -0 -1 -1 -1 -1 -1 -0 0 1 3 4 4 5 5 4 4 4 5 5 5 5 5 5 5 5 5 5 4 4 4 4 4 3 3 3 3 3 4 3 3 3 3 3 3 3 2 2 1 0 -0 0 0 0 0 0 0 0 0 0 1 1 1 1 1 1 0 0 0 1
0 -0 -1 -1 -1 -1 -1 -1 -1 -1 -1 -1 -0 -0 -0 -0 -0 -0 -0 -1 -1 -1 -0 0 1 2 3 4 5 5 4 4 4 4 5 5 5 5 5 5 5 5 5 4 4 4 4 3 3 3 3 3 3 3 3 3 3 3 3 3 3 2 2 1 1 -0 -0 -0 -0 -0 -0 0 0 0 0 1 1 1 1 1 1 0 0 0 1
-1 -1 -1 -1 -1 -1 -1 -1 -1 -1 -1 -1 -1 -0 -0 -0 -0 -0 0 -0 -0 -1 -0 0 1 2 3 3 4 4 4 3 3 4 4 5 5 4 4 5 5 5 5 4 4 4 4 3 3 3 3 3 3 3 3 3 3 3 2 2 3 2 2 2 1 -0 -0 -0 -0 -0 -0 -0 -0 0 0 0 1 1 1 1 1 1 0 0 1
-1 -1 -1 -1 -1 -1 -1 -1 -1 -0 -0 -1 -1 -0 -0 -0 -0 -0 0 -0 -0 -0 -0 0 1 2 3 3 4 4 4 3 3 3 4 4 5 4 4 4 5 5 4 4 4 3 3 3 3 3 3 3 3 3 3 3 3 3 2 2 2 2 2 2 1 0 -0 -0 -0 -0 -0 -0 -0 -0 0 0 1 1 1 1 1 1 0 0 1
-1 -1 -1 -1 -1 -1 -1 -1 -0 -0 -0 -0 -1 -0 -0 -1 -0 -0 -0 -0 -0 -0 -0 -0 1 2 2 3 3 4 4 3 3 3 3 4 4 4 4 4 5 5 4 4 4 3 3 3 3 3 3 3 3 3 3 3 3 2 2 2 2 2 2 2 2 1 -0 -0 -0 -0 -0 0 -0 -0 0 0 0 1 1 1 1 1 0 0 0
Height
1503 1503 1503 1503 1502 1502 1502 1502 1501 1501 1501 1500 1499 1499 1498 1498 1497 1497 1497 1496 1496 1496 1495 1495 1494 1493 1492 1490 1489 1487 1486 1485 1484 1483 1482 1481 1480 1479 1478 1476 1475 1474 1472 1471 1469 1467 1466 1464 1463 1461 1460 1458 1456 1455 1453 1452 1451 1449 1447 1445 1443 1441 1439 1438 1435 1434 1433 1431 1429 1428 1426 1424 1422 1420 1417 1415 1412 1410 1408 1406 1404 1402 1401 1400 1399
1503 1503 1503 1502 1502 1502 1502 1502 1501 1501 1500 1499 1499 1498 1498 1498 1497 1496 1496 1496 1496 1495 1495 1495 1494 1493 1491 1490 1489 1487 1486 1485 1484 1483 1482 1481 1480 1479 1478 1476 1475 1473 1472 1470 1468 1467 1465 1464 1463 1462 1460 1459 1457 1455 1454 1453 1451 1450 1448 1446 1444 1442 1440 1438 1436 1434 1433 1432 1430 1429 1428 1426 1424 1422 1420 1417 1415 1413 1410 1408 1407 1405 1404 1403 1402
1503 1503 1503 1502 1502 1502 1501 1501 1501 1500 1500 1499 1498 1498 1497 1497 1496 1496 1496 1495 1495 1495 1494 1494 1493 1492 1491 1490 1488 1487 1486 1485 1484 1483 1482 1481 1480 1478 1477 1476 1474 1473 1471 1469 1468 1466 1465 1464 1463 1462 1461 1460 1458 1457 1455 1454 1452 1451 1449 1447 1445 1443 1441 1439 1436 1434 1433 1432 1431 1430 1428 1427 1426 1424 1422 1420 1418 1416 1414 1412 1410 1409 1407 1406 1405
1502 1502 1502 1502 1502 1502 1501 1501 1500 1500 1499 1499 1498 1498 1497 1497 1496 1495 1495 1494 1494 1494 1493 1493 1492 1492 1491 1490 1488 1487 1486 1484 1483 1482 1482 1481 1480 1478 1477 1476 1474 1473 1471 1469 1468 1466 1465 1464 1463 1462 1462 1460 1459 1458 1457 1455 1454 1452 1450 1449 1447 1444 1442 1439 1437 1435 1433 1433 1432 1431 1430 1429 1428 1426 1425 1423 1422 1420 1418 1416 1414 1412 1411 1410 1409
1502 1501 1502 1501 1501 1501 1501 1500 1500 1499 1499 1498 1498 1497 1497 1496 1496 1495 1494 1494 1493 1493 1492 1492 1491 1491 1490 1489 1488 1487 1486 1484 1483 1482 1481 1480 1479 1478 1477 1476 1474 1473 1471 1470 1468 1467 1465 1464 1463 1463 1462 1461 1460 1459 1458 1456 1455 1453 1452 1450 1448 1446 1443 1440 1438 1436 1434 1433 1433 1432 1431 1430 1429 1428 1427 1426 1424 1423 1421 1419 1417 1415 1414 1413 1412
1501 1501 1501 1501 1501 1501 1500 1500 1499 1499 1498 1498 1497 1497 1496 1496 1495 1495 1494 1493 1493 1492 1492 1491 1491 1490 1489 1488 1487 1486 1485 1484 1483 1482 1481 1480 1479 1478 1477 1476 1475 1473 1472 1470 1468 1467 1466 1464 1464 1463 1462 1462 1461 1460 1459 1457 1456 1455 1453 1451 1450 1447 1444 1442 1439 1437 1435 1434 1434 1433 1432 1431 1431 1430 1429 1428 1427 1425 1424 1422 1420 1419 1418 1417 1416
1500 1500 1500 1500 1500 1500 1499 1499 1499 1498 1498 1497 1497 1497 1496 1495 1495 1494 1494 1493 1492 1492 1491 1490 1490 1489 1489 1488 1487 1486 1484 1484 1483 1482 1481 1480 1479 1478 1477 1476 1475 1474 1472 1470 1469 1467 1466 1465 1464 1464 1463 1462 1461 1460 1460 1458 1457 1456 1454 1453 1451 1449 1446 1443 1441 1439 1437 1436 1435 1434 1433 1433 1432 1431 1431 1430 1429 1428 1427 1425 1423 1422 1422 1421 1420
1498 1499 1499 1499 1499 1498 1498 1498 1498 1498 1497 1497 1497 1496 1495 1495 1494 1493 1493 1492 1491 1491 1490 1489 1489 1488 1488 1487 1486 1485 1484 1483 1482 1481 1481 1480 1479 1478 1478 1476 1475 1474 1472 1471 1469 1468 1467 1466 1465 1464 1463 1462 1462 1461 1460 1459 1458 1457 1455 1454 1452 1450 1447 1445 1442 1440 1438 1437 1436 1435 1435 1434 1433 1433 1432 1432 1431 1430 1429 1428 1426 1426 1425 1424 1423
1498 1498 1498 1498 1498 1497 1497 1497 1497 1497 1496 1496 1495 1495 1495 1494 1493 1492 1492 1491 1490 1490 1489 1488 1488 1487 1486 1486 1485 1484 1483 1482 1481 1480 1480 1479 1479 1478 1478 1477 1475 1474 1473 1471 1470 1468 1467 1466 1465 1465 1464 1463 1462 1461 1461 1460 1459 1458 1457 1455 1453 1451 1449 1446 1444 1441 1440 1438 1437 1437 1436 1436 1435 1434 1434 1433 1433 1432 1432 1431 1429 1429 1429 1428 1427
1497 1497 1496 1497 1497 1496 1496 1496 1496 1495 1495 1494 1494 1494 1493 1492 1492 1491 1490 1490 1489 1489 1488 1487 1486 1486 1485 1484 1484 1483 1482 1481 1480 1480 1479 1479 1478 1478 1477 1476 1475 1474 1473 1471 1470 1468 1467 1466 1466 1465 1464 1463 1463 1462 1461 1461 1459 1459 1458 1456 1454 1453 1450 1448 1445 1443 1441 1440 1439 1438 1437 1437 1436 1436 1436 1435 1435 1435 1434 1433 1432 1432 1431 1430 1430
1495 1495 1495 1496 1495 1495 1495 1495 1495 1494 1493 1493 1492 1492 1491 1491 1490 1490 1489 1489 1488 1487 1486 1485 1485 1484 1484 1483 1483 1482 1482 1481 1480 1479 1478 1478 1478 1477 1477 1476 1475 1474 1473 1471 1470 1468 1467 1467 1466 1465 1464 1464 1463 1463 1462 1461 1460 1460 1459 1457 1456 1454 1452 1450 1447 1445 1443 1442 1440 1439 1439 1438 1438 1438 1437 1437 1437 1437 1436 1436 1435 1435 1434 1433 1433
1494 1494 1494 1494 1494 1494 1494 1493 1493 1493 1492 1492 1491 1490 1490 1489 1489 1488 1488 1487 1486 1485 1485 1484 1483 1483 1482 1482 1481 1481 1481 1480 1479 1479 1478 1477 1477 1476 1476 1476 1475 1474 1473 1471 1470 1469 1468 1467 1466 1465 1465 1464 1463 1463 1462 1462 1461 1460 1459 1458 1457 1455 1453 1451 1449 1447 1445 1444 1442 1441 1440 1439 1439 1439 1439 1439 1439 1439 1438 1438 1438 1437 1436 1435 1435
1492 1493 1493 1493 1493 1492 1492 1492 1492 1491 1491 1490 1490 1489 1488 1488 1487 1487 1486 1486 1485 1484 1483 1483 1482 1482 1481 1481 1480 1480 1479 1479 1479 1478 1477 1477 1476 1476 1475 1475 1474 1473 1472 1471 1470 1469 1468 1467 1466 1466 1465 1464 1464 1463 1463 1462 1462 1461 1460 1459 1458 1457 1455 1453 1451 1449 1447 1445 1444 1443 1442 1441 1441 1440 1440 1440 1440 1440 1440 1440 1440 1439 1439 1438 1438
1491 1491 1491 1491 1491 1491 1491 1490 1490 1490 1489 1489 1488 1487 1487 1486 1486 1485 1484 1484 1483 1482 1482 1481 1481 1480 1480 1480 1479 1479 1478 1478 1478 1477 1477 1476 1476 1475 1475 1474 1474 1473 1472 1471 1470 1469 1468 1467 1466 1466 1465 1464 1464 1464 1463 1463 1462 1462 1461 1460 1459 1458 1456 1455 1453 1451 1449 1447 1446 1444 1444 1443 1442 1442 1442 1442 1442 1442 1442 1442 1442 1442 1441 1441 1442
1489 1489 1489 1490 1490 1489 1489 1489 1488 1488 1488 1487 1486 1485 1485 1485 1484 1483 1483 1482 1481 1481 1480 1480 1479 1479 1479 1478 1478 1478 1477 1477 1477 1476 1476 1475 1475 1474 1474 1474 1473 1473 1471 1470 1469 1468 1467 1467 1467 1466 1465 1465 1464 1464 1464 1463 1463 1463 1462 1461 1460 1459 1458 1456 1454 1452 1450 1449 1447 1446 1445 1445 1444 1444 1444 1444 1444 1444 1444 1444 1444 1444 1444 1444 1444
1488 1488 1488 1488 1488 1488 1487 1487 1487 1486 1486 1485 1485 1484 1483 1483 1482 1482 1481 1481 1480 1479 1479 1478 1478 1477 1477 1477 1476 1476 1476 1476 1475 1475 1475 1474 1474 1473 1473 1473 1472 1472 1471 1470 1469 1468 1467 1467 1467 1466 1466 1465 1465 1464 1464 1464 1464 1463 1463 1462 1461 1460 1459 1457 1456 1454 1452 1450 1449 1448 1447 1447 1446 1446 1446 1446 1445 1446 1446 1446 1446 1446 1446 1446 1446
1487 1486 1486 1486 1486 1486 1486 1485 1485 1484 1484 1483 1483 1482 1482 1481 1481 1480 1480 1479 1479 1478 1477 1477 1476 1476 1475 1475 1475 1474 1474 1474 1473 1473 1473 1473 1473 1473 1472 1472 1472 1471 1470 1469 1469 1468 1467 1467 1467 1466 1466 1465 1465 1464 1464 1464 1464 1464 1464 1463 1462 1461 1460 1459 1457 1456 1454 1452 1451 1450 1449 1449 1448 1448 1448 1447 1447 1447 1448 1448 1448 1448 1448 1448 1448
1485 1484 1484 1484 1484 1484 1483 1483 1483 1482 1482 1481 1481 1481 1480 1480 1479 1478 1478 1478 1477 1476 1476 1475 1475 1474 1474 1473 1473 1473 1473 1472 1472 1472 1472 1472 1472 1472 1471 1471 1471 1471 1470 1469 1468 1468 1467 1467 1467 1466 1466 1465 1465 1465 1465 1465 1465 1464 1464 1464 1463 1462 1461 1460 1459 1457 1456 1454 1453 1452 1451 1450 1450 1450 1449 1449 1449 1449 1449 1450 1450 1450 1450 1450 1450
1483 1482 1482 1482 1482 1481 1481 1481 1480 1480 1480 1479 1479 1479 1478 1478 1477 1476 1475 1475 1475 1475 1474 1474 1473 1473 1473 1472 1472 1472 1471 1471 1470 1470 1470 1470 1470 1470 1470 1470 1470 1470 1469 1469 1468 1468 1467 1467 1467 1466 1466 1465 1465 1465 1465 1465 1465 1465 1464 1464 1464 1463 1462 1461 1460 1459 1457 1456 1454 1453 1453 1452 1451 1451 1451 1451 1451 1451 1451 1451 1452 1452 1453 1452 1453
1481 1481 1481 1480 1480 1479 1479 1478 1477 1477 1477 1477 1477 1476 1476 1475 1475 1474 1473 1473 1473 1473 1473 1472 1472 1472 1471 1471 1471 1471 1471 1470 1469 1469 1469 1469 1469 1469 1469 1469 1469 1469 1469 1468 1468 1468 1467 1467 1467 1466 1466 1465 1465 1465 1465 1465 1465 1465 1465 1464 1464 1464 1463 1462 1461 1459 1458 1457 1456 1455 1454 1453 1453 1453 1453 1453 1453 1452 1452 1452 1453 1454 1454 1454 1455
1481 1480 1479 1479 1478 1477 1476 1476 1475 1474 1474 1474 1473 1473 1473 1473 1472 1472 1471 1471 1471 1471 1471 1471 1471 1470 1470 1469 1469 1470 1470 1469 1469 1469 1468 1468 1468 1468 1468 1468 1468 1468 1468 1468 1468 1467 1467 1467 1467 1466 1466 1465 1465 1465 1464 1465 1465 1465 1465 1465 1464 1464 1464 1463 1462 1460 1459 1458 1457 1457 1456 1455 1455 1455 1454 1454 1454 1454 1454 1454 1454 1455 1456 1456 1456
1480 1479 1478 1477 1476 1475 1474 1473 1472 1471 1471 1470 1469 1469 1469 1469 1469 1469 1469 1469 1469 1469 1469 1469 1469 1469 1468 1468 1468 1468 1468 1468 1468 1468 1467 1467 1467 1467 1467 1467 1467 1468 1468 1467 1467 1467 1467 1467 1467 1466 1466 1465 1465 1464 1464 1464 1464 1464 1465 1465 1465 1465 1464 1464 1463 1462 1460 1459 1459 1458 1458 1457 1457 1456 1456 1456 1456 1456 1456 1456 1456 1457 1457 1458 1458
1479 1478 1476 1475 1474 1473 1472 1471 1470 1468 1467 1467 1466 1466 1466 1466 1466 1466 1467 1467 1467 1467 1467 1467 1467 1467 1466 1466 1466 1467 1467 1467 1467 1467 1467 1466 1466 1466 1466 1466 1466 1467 1467 1467 1467 1466 1466 1466 1466 1466 1466 1465 1465 1464 1463 1463 1464 1464 1464 1464 1464 1465 1465 1464 1464 1463 1461 1460 1460 1459 1459 1459 1458 1458 1457 1457 1457 1457 1457 1457 1457 1458 1458 1459 1460
1477 1476 1475 1474 1472 1471 1470 1469 1467 1466 1465 1463 1463 1462 1462 1462 1462 1463 1464 1465 1465 1464 1464 1464 1465 1464 1464 1464 1464 1465 1465 1465 1466 1466 1466 1466 1465 1465 1465 1465 1465 1466 1466 1467 1466 1466 1466 1466 1466 1466 1465 1465 1464 1464 1463 1463 1463 1463 1464 1464 1464 1465 1465 1465 1465 1464 1463 1461 1461 1460 1460 1460 1459 1459 1458 1458 1458 1458 1458 1458 1458 1458 1459 1459 1460
1476 1475 1473 1472 1471 1469 1468 1467 1465 1464 1463 1461 1460 1459 1459 1459 1459 1459 1460 1461 1460 1460 1460 1461 1461 1462 1462 1462 1462 1463 1463 1464 1464 1465 1465 1465 1465 1465 1465 1464 1464 1465 1465 1466 1466 1466 1466 1465 1465 1465 1465 1464 1464 1463 1463 1463 1463 1463 1464 1464 1464 1465 1465 1466 1465 1465 1464 1463 1462 1462 1461 1460 1460 1460 1459 1459 1459 1459 1459 1458 1459 1459 1460 1460 1461
1474 1472 1471 1470 1468 1467 1466 1465 1463 1462 1461 1460 1459 1457 1456 1456 1455 1456 1456 1456 1456 1455 1456 1456 1457 1458 1459 1460 1460 1461 1461 1462 1462 1463 1463 1464 1464 1464 1464 1464 1464 1464 1464 1465 1466 1466 1465 1465 1465 1465 1465 1464 1464 1463 1463 1463 1463 1463 1464 1464 1464 1465 1466 1466 1466 1466 1465 1464 1463 1463 1462 1461 1461 1461 1460 1460 1460 1460 1459 1459 1460 1460 1460 1461 1462
1472 1470 1469 1467 1466 1464 1463 1462 1461 1460 1459 1458 1456 1455 1454 1453 1452 1452 1452 1452 1452 1452 1452 1453 1454 1455 1456 1457 1458 1459 1459 1459 1460 1460 1461 1462 1463 1463 1463 1463 1463 1463 1464 1465 1465 1465 1465 1465 1464 1464 1464 1464 1463 1463 1462 1463 1463 1463 1464 1464 1464 1465 1466 1466 1467 1466 1466 1465 1464 1463 1463 1462 1462 1462 1461 1461 1461 1461 1460 1460 1460 1461 1462 1463 1464
1469 1468 1466 1465 1463 1462 1460 1459 1457 1456 1455 1454 1453 1452 1451 1450 1449 1449 1449 1449 1449 1449 1450 1450 1451 1452 1453 1454 1456 1456 1456 1457 1457 1458 1459 1460 1461 1462 1462 1462 1463 1463 1463 1464 1465 1465 1465 1464 1464 1464 1464 1464 1463 1463 1462 1462 1463 1463 1464 1464 1464 1465 1466 1467 1467 1467 1467 1466 1466 1465 1464 1464 1463 1463 1462 1462 1462 1462 1461 1461 1462 1462 1463 1464 1465
1466 1465 1463 1462 1461 1459 1458 1456 1454 1453 1452 1451 1450 1449 1448 1447 1445 1445 1445 1445 1445 1446 1447 1447 1448 1449 1450 1452 1453 1453 1453 1454 1455 1456 1458 1459 1460 1460 1461 1462 1462 1462 1463 1463 1464 1464 1464 1464 1464 1463 1463 1463 1463 1462 1462 1462 1463 1464 1464 1464 1465 1465 1466 1467 1467 1468 1468 1468 1467 1467 1466 1465 1464 1464 1463 1463 1463 1463 1462 1462 1462 1463 1464 1465 1466
1464 1462 1461 1460 1458 1456 1455 1454 1452 1451 1449 1448 1447 1446 1445 1444 1442 1441 1442 1442 1442 1443 1444 1444 1445 1447 1448 1449 1451 1451 1452 1453 1454 1455 1456 1457 1458 1459 1460 1461 1462 1462 1462 1462 1463 1464 1464 1464 1463 1463 1463 1463 1463 1462 1462 1462 1463 1463 1464 1464 1465 1465 1466 1467 1467 1468 1468 1468 1468 1468 1467 1467 1466 1465 1464 1464 1464 1464 1463 1463 1463 1464 1465 1466 1467
1462 1461 1459 1458 1456 1455 1453 1452 1450 1449 1447 1445 1444 1443 1442 1441 1439 1438 1438 1438 1438 1439 1440 1441 1443 1444 1445 1446 1448 1449 1450 1451 1452 1453 1454 1455 1456 1457 1458 1459 1460 1461 1461 1462 1462 1462 1463 1463 1463 1463 1463 1462 1462 1462 1462 1462 1462 1463 1464 1464 1465 1465 1466 1467 1468 1468 1469 1469 1469 1469 1469 1468 1467 1466 1466 1465 1465 1465 1465 1465 1465 1465 1466 1468 1469
1460 1459 1457 1456 1455 1453 1452 1450 1448 1447 1445 1443 1442 1440 1439 1438 1437 1436 1435 1435 1435 1436 1436 1437 1439 1440 1441 1443 1445 1446 1447 1448 1449 1450 1451 1452 1454 1455 1456 1457 1458 1460 1460 1461 1461 1461 1462 1462 1462 1462 1462 1462 1461 1462 1461 1461 1462 1463 1464 1464 1465 1465 1466 1467 1468 1469 1469 1469 1470 1470 1470 1469 1468 1468 1467 1466 1467 1467 1467 1466 1467 1467 1468 1469 1470
1458 1457 1456 1454 1453 1452 1450 1448 1447 1445 1443 1441 1440 1438 1436 1435 1434 1433 1433 1432 1432 1432 1433 1434 1435 1436 1437 1439 1441 1443 1445 1446 1447 1448 1449 1450 1452 1453 1454 1455 1456 1458 1459 1459 1460 1460 1461 1461 1461 1461 1461 1461 1461 1461 1461 1461 1461 1462 1463 1464 1465 1465 1466 1467 1468 1469 1469 1470 1470 1470 1470 1470 1470 1469 1468 1468 1468 1468 1468 1468 1468 1469 1470 1471 1472
1457 1455 1454 1452 1450 1449 1447 1446 1444 1443 1441 1440 1438 1436 1435 1433 1431 1430 1429 1429 1428 1428 1429 1430 1431 1432 1434 1435 1437 1439 1441 1442 1444 1445 1447 1448 1449 1451 1452 1453 1454 1456 1457 1458 1458 1459 1459 1460 1460 1461 1461 1461 1460 1460 1461 1461 1461 1462 1463 1464 1464 1465 1466 1467 1468 1469 1469 1470 1470 1471 1471 1471 1470 1470 1469 1469 1469 1469 1470 1470 1470 1471 1471 1473 1474
1454 1452 1451 1449 1447 1445 1444 1442 1441 1440 1439 1437 1436 1434 1433 1431 1429 1428 1427 1426 1425 1425 1425 1426 1427 1428 1430 1431 1433 1435 1437 1439 1441 1442 1444 1446 1447 1448 1449 1451 1452 1453 1455 1456 1457 1458 1458 1459 1459 1460 1460 1460 1460 1460 1460 1460 1461 1461 1462 1463 1464 1465 1466 1467 1468 1469 1469 1470 1471 1471 1471 1471 1471 1471 1470 1470 1470 1470 1470 1471 1471 1472 1473 1474 1475
1451 1449 1447 1445 1443 1441 1440 1438 1437 1436 1435 1433 1432 1431 1430 1428 1427 1426 1424 1424 1423 1422 1422 1423 1423 1424 1426 1428 1429 1431 1433 1435 1438 1439 1441 1443 1444 1445 1446 1447 1449 1451 1453 1454 1455 1456 1457 1458 1459 1459 1459 1459 1459 1459 1460 1460 1460 1461 1461 1462 1463 1464 1465 1466 1467 1468 1469 1470 1471 1471 1472 1472 1471 1471 1471 1470 1471 1471 1471 1471 1472 1473 1474 1475 1476
1447 1445 1443 1441 1439 1437 1435 1433 1432 1431 1429 1428 1427 1426 1425 1424 1424 1422 1421 1421 1420 1420 1420 1420 1420 1421 1422 1423 1425 1427 1429 1432 1434 1436 1438 1440 1441 1443 1444 1445 1447 1449 1451 1453 1454 1455 1456 1457 1458 1458 1459 1459 1459 1459 1459 1460 1460 1460 1461 1462 1463 1464 1465 1466 1467 1468 1469 1470 1471 1472 1472 1472 1472 1472 1471 1471 1471 1471 1471 1472 1473 1473 1474 1475 1477
1443 1441 1439 1437 1434 1432 1430 1428 1427 1425 1424 1423 1422 1421 1420 1419 1419 1418 1417 1417 1417 1417 1417 1416 1416 1417 1417 1419 1421 1423 1425 1428 1430 1432 1434 1435 1437 1440 1442 1443 1445 1447 1449 1451 1453 1454 1455 1456 1457 1457 1458 1458 1458 1458 1459 1459 1459 1460 1460 1461 1462 1463 1464 1466 1467 1468 1469 1470 1471 1472 1472 1472 1472 1472 1472 1471 1471 1472 1472 1472 1473 1474 1475 1476 1477
1439 1436 1435 1432 1430 1427 1425 1423 1421 1420 1419 1418 1417 1416 1415 1414 1414 1413 1413 1412 1412 1413 1413 1413 1413 1413 1414 1415 1417 1419 1421 1423 1424 1427 1429 1432 1435 1438 1439 1440 1442 1445 1447 1449 1451 1453 1454 1455 1456 1456 1457 1458 1458 1458 1458 1459 1459 1459 1460 1460 1461 1462 1464 1465 1466 1468 1469 1470 1471 1472 1472 1472 1472 1472 1472 1472 1472 1472 1472 1473 1473 1474 1474 1475 1477
1433 1431 1429 1427 1425 1422 1420 1418 1416 1415 1414 1413 1412 1411 1410 1409 1409 1409 1408 1407 1407 1408 1408 1409 1410 1410 1410 1411 1412 1414 1416 1418 1419 1422 1424 1428 1432 1435 1436 1438 1440 1443 1445 1447 1449 1451 1452 1453 1454 1455 1456 1457 1457 1457 1457 1458 1458 1459 1459 1460 1460 1462 1463 1464 1466 1467 1469 1470 1471 1472 1472 1473 1473 1472 1472 1472 1472 1472 1473 1473 1473 1474 1474 1475 1476
1429 1426 1424 1422 1419 1417 1415 1413 1411 1410 1409 1408 1407 1406 1406 1405 1404 1404 1404 1403 1402 1403 1404 1405 1406 1406 1407 1407 1408 1410 1412 1414 1417 1419 1421 1425 1429 1432 1433 1436 1438 1440 1443 1445 1447 1449 1451 1452 1453 1454 1455 1456 1456 1456 1457 1457 1458 1458 1459 1459 1460 1461 1462 1464 1465 1467 1468 1470 1471 1472 1473 1473 1473 1473 1473 1473 1472 1473 1473 1473 1473 1474 1474 1475 1476
1425 1421 1419 1417 1414 1412 1410 1408 1406 1405 1404 1403 1402 1401 1401 1400 1400 1399 1399 1398 1398 1398 1399 1400 1402 1403 1403 1404 1405 1406 1408 1411 1414 1416 1419 1422 1426 1429 1431 1434 1436 1439 1441 1444 1446 1448 1450 1451 1452 1453 1453 1454 1455 1456 1456 1457 1457 1458 1458 1459 1459 1460 1462 1463 1465 1466 1468 1469 1471 1472 1473 1473 1474 1474 1473 1473 1473 1473 1473 1473 1474 1474 1475 1476 1477
1420 1417 1415 1412 1410 1408 1405 1403 1402 1400 1399 1398 1396 1396 1395 1395 1394 1394 1394 1393 1393 1393 1394 1396 1397 1398 1399 1400 1401 1403 1405 1407 1409 1412 1415 1419 1423 1426 1429 1432 1435 1437 1440 1442 1445 1447 1449 1450 1451 1452 1452 1453 1454 1455 1456 1456 1457 1457 1458 1458 1459 1459 1461 1463 1464 1466 1468 1469 1471 1472 1473 1474 1474 1474 1474 1474 1473 1473 1473 1474 1474 1475 1476 1477 1478
1416 1413 1411 1408 1405 1403 1401 1399 1397 1396 1394 1393 1392 1390 1390 1389 1389 1388 1388 1388 1387 1387 1389 1391 1393 1394 1395 1396 1397 1399 1401 1403 1405 1408 1412 1416 1420 1424 1427 1431 1433 1436 1438 1441 1443 1445 1447 1448 1449 1450 1451 1452 1453 1454 1455 1456 1456 1457 1457 1458 1458 1459 1460 1462 1464 1466 1467 1469 1470 1471 1473 1474 1474 1474 1474 1474 1474 1474 1474 1474 1475 1476 1477 1478 1479
1412 1409 1406 1403 1401 1398 1396 1395 1393 1391 1390 1388 1387 1386 1385 1385 1384 1383 1382 1382 1382 1382 1384 1386 1388 1390 1391 1392 1393 1395 1397 1400 1402 1405 1409 1413 1417 1421 1425 1429 1432 1434 1437 1439 1441 1443 1445 1447 1448 1449 1450 1451 1452 1453 1454 1455 1456 1456 1457 1457 1458 1459 1460 1462 1463 1465 1467 1469 1470 1471 1473 1474 1474 1475 1475 1474 1474 1474 1474 1475 1475 1476 1477 1479 1480
1409 1406 1402 1399 1396 1394 1392 1390 1389 1387 1385 1384 1383 1382 1381 1380 1380 1379 1378 1378 1378 1378 1379 1381 1384 1385 1386 1388 1389 1391 1394 1397 1399 1402 1406 1410 1414 1418 1423 1427 1430 1433 1435 1438 1440 1442 1444 1445 1447 1448 1449 1450 1451 1453 1454 1454 1455 1456 1456 1457 1458 1459 1460 1461 1463 1465 1466 1468 1470 1471 1472 1473 1474 1475 1475 1475 1475 1475 1475 1475 1476 1477 1478 1480 1481
1405 1402 1399 1396 1393 1390 1388 1386 1385 1383 1381 1380 1379 1377 1377 1376 1375 1375 1374 1374 1374 1375 1375 1377 1379 1381 1382 1384 1385 1387 1391 1394 1396 1399 1404 1408 1411 1416 1420 1425 1428 1431 1434 1436 1439 1441 1442 1444 1446 1447 1448 1449 1451 1452 1453 1454 1455 1455 1456 1456 1457 1458 1460 1461 1463 1464 1466 1468 1469 1471 1472 1473 1474 1475 1475 1475 1475 1476 1476 1476 1476 1477 1479 1480 1482
1402 1399 1396 1393 1390 1387 1385 1383 1381 1379 1377 1375 1374 1373 1372 1371 1371 1370 1370 1370 1371 1371 1372 1373 1375 1377 1378 1380 1382 1384 1387 1391 1393 1397 1402 1406 1410 1414 1418 1422 1426 1429 1432 1435 1438 1439 1441 1443 1445 1446 1447 1449 1450 1451 1452 1453 1454 1455 1456 1456 1457 1458 1459 1461 1463 1464 1466 1467 1469 1471 1472 1473 1475 1475 1476 1476 1476 1476 1477 1477 1477 1478 1479 1481 1483
1399 1396 1393 1390 1387 1384 1381 1379 1377 1375 1373 1371 1370 1368 1367 1367 1366 1366 1365 1366 1367 1368 1368 1370 1372 1373 1375 1377 1378 1381 1385 1388 1391 1394 1399 1404 1408 1412 1416 1420 1424 1428 1431 1434 1436 1438 1440 1442 1444 1445 1447 1448 1450 1451 1452 1453 1454 1455 1455 1456 1457 1458 1459 1461 1462 1464 1465 1467 1468 1470 1471 1473 1474 1476 1476 1477 1477 1477 1478 1478 1478 1479 1480 1482 1483
1396 1393 1390 1387 1383 1380 1378 1375 1373 1370 1368 1367 1365 1363 1362 1362 1361 1361 1361 1362 1363 1364 1365 1366 1368 1370 1372 1373 1375 1378 1381 1385 1388 1392 1396 1401 1405 1410 1414 1418 1422 1426 1430 1433 1435 1437 1439 1441 1443 1444 1446 1448 1449 1450 1451 1452 1453 1454 1455 1456 1457 1458 1459 1460 1462 1463 1465 1466 1468 1470 1471 1472 1474 1476 1477 1478 1478 1478 1478 1479 1479 1480 1481 1482 1484
1394 1390 1387 1383 1380 1377 1374 1371 1368 1366 1364 1362 1360 1358 1357 1356 1356 1356 1357 1357 1359 1360 1361 1363 1364 1367 1368 1370 1372 1375 1379 1382 1385 1389 1394 1399 1403 1407 1412 1416 1420 1424 1428 1431 1434 1436 1438 1440 1442 1443 1445 1447 1448 1450 1451 1452 1453 1454 1455 1456 1457 1457 1459 1460 1461 1462 1464 1466 1467 1469 1470 1472 1474 1476 1477 1478 1479 1479 1480 1480 1480 1481 1482 1483 1485
Wind_Speed
5 5 5 3 3 3 3 3 3 4 6 6 7 6 7 7 7 8 8 9 9 9 10 11 12 14 15 16 18 17 15 13 12 11 12 13 14 13 13 13 14 15 16 18 19 20 22 19 14 14 17 17 15 14 14 15 15 16 17 17 18 18 19 20 19 18 16 14 16 17 13 13 19 23 22 23 24 24 24 23 22 20 18 18 21
6 5 5 4 4 4 3 3 3 4 5 7 7 7 7 7 7 7 8 9 9 9 9 11 12 14 15 17 18 17 15 13 12 12 12 13 13 14 14 14 15 17 17 18 19 19 21 19 13 11 14 16 15 14 13 14 14 15 16 16 17 18 20 20 20 20 17 14 14 15 12 12 17 21 22 22 24 24 24 25 24 23 22 19 19
6 6 6 5 5 5 4 4 4 4 5 6 7 8 8 7 7 6 7 7 7 8 9 11 12 13 15 17 18 17 16 14 13 12 12 13 14 14 15 17 18 18 17 17 18 18 19 18 12 9 12 14 15 15 14 14 14 15 16 17 18 19 20 21 21 21 17 13 13 13 13 12 14 17 19 20 22 23 23 25 24 24 24 22 21
5 5 5 5 5 5 4 4 4 4 5 6 7 8 8 8 7 7 6 7 7 7 9 10 12 13 15 16 17 16 15 15 13 13 12 13 14 15 17 18 17 17 16 17 17 18 19 17 11 9 10 11 13 14 14 14 14 15 16 17 18 19 20 20 22 21 17 11 10 10 12 11 10 13 16 18 19 22 22 23 24 24 24 23 23
5 5 5 5 5 5 5 5 5 5 6 7 8 8 8 8 7 7 7 7 7 7 9 10 11 12 14 15 16 16 15 14 13 13 12 13 14 15 16 16 16 17 17 17 17 17 18 16 11 8 9 9 11 13 13 13 14 15 17 18 19 20 20 21 22 21 17 12 10 10 11 10 8 9 15 17 17 19 20 22 24 24 23 23 24
6 5 5 5 5 5 5 5 5 6 6 7 9 9 9 9 8 8 8 8 8 8 9 10 11 12 13 14 15 15 15 14 13 13 12 12 13 14 14 14 15 17 18 18 17 17 17 15 11 8 8 8 9 11 12 12 13 15 17 19 20 20 21 22 22 20 17 14 14 13 12 10 7 7 12 16 15 16 17 20 25 25 23 24 25
7 6 6 6 6 5 5 6 7 7 7 8 9 10 10 10 10 9 9 9 9 8 9 10 11 11 12 13 13 14 14 14 13 12 12 12 12 12 12 13 15 16 18 18 17 16 16 15 11 8 8 8 8 9 10 11 12 14 16 18 20 21 22 23 22 20 16 13 13 12 11 9 7 7 10 12 13 15 16 20 24 26 25 25 25
7 7 8 7 6 5 6 7 8 8 9 9 10 10 10 10 11 10 10 10 9 9 9 9 10 10 11 11 11 12 13 13 13 12 11 10 10 10 11 13 14 15 16 18 17 15 15 13 11 8 8 8 8 8 10 11 12 14 16 17 19 20 22 23 23 20 15 11 11 12 11 9 9 8 9 11 13 14 15 18 22 23 24 24 24
8 8 9 8 7 6 7 8 9 9 10 10 10 11 11 11 11 11 11 10 9 9 9 9 10 10 10 10 10 11 11 11 12 12 10 9 8 8 10 12 13 14 15 16 16 14 13 12 10 8 8 9 9 8 10 12 12 13 15 16 17 19 21 22 23 21 15 11 11 13 12 12 11 9 9 12 13 13 12 15 19 21 21 23 24
10 10 9 8 7 8 9 9 9 10 10 10 11 12 12 12 12 12 12 11 10 9 10 10 9 9 9 9 10 10 10 10 10 10 9 8 7 7 9 11 12 13 14 15 15 13 11 11 9 7 7 9 9 8 8 10 12 13 15 16 16 17 19 21 23 22 19 14 12 12 12 12 11 9 9 11 11 10 10 13 17 19 19 22 23
11 11 10 9 9 10 10 11 11 11 11 11 12 13 12 13 13 13 12 11 10 10 10 10 9 9 9 9 9 9 9 9 9 9 9 8 6 7 8 10 12 13 14 15 15 13 10 9 9 7 6 7 8 8 7 9 10 12 14 14 14 15 18 21 23 23 20 17 13 12 11 10 9 8 8 9 9 10 11 12 15 17 18 21 22
11 11 11 10 10 11 12 13 13 13 13 13 13 13 13 14 14 14 13 11 11 10 10 10 10 10 10 9 9 9 9 9 8 9 8 7 7 7 8 10 11 12 13 15 15 13 10 9 8 8 6 6 7 7 7 8 10 11 12 12 12 13 16 20 22 22 21 18 15 14 12 10 9 7 7 8 9 9 10 12 14 16 17 19 20
11 11 11 11 12 12 13 14 15 15 15 14 14 13 14 14 14 14 13 12 11 11 10 10 10 10 10 10 10 10 9 9 8 8 8 7 7 7 8 9 11 11 13 14 14 12 10 8 7 7 7 6 6 6 6 7 9 11 11 10 10 12 15 19 21 22 21 17 13 14 13 11 9 7 7 8 9 9 10 12 13 15 17 18 19
9 10 11 12 13 14 15 15 16 16 16 16 16 15 14 14 14 14 13 13 13 12 11 10 9 9 10 10 11 10 9 8 8 8 8 7 6 7 8 9 10 11 12 13 13 11 9 7 6 6 6 6 6 5 6 8 9 10 9 8 10 12 14 17 20 21 21 16 13 13 12 9 8 8 9 9 9 9 11 12 13 15 17 20 20
9 10 11 13 13 14 15 16 16 16 16 16 17 17 16 15 14 14 14 14 14 14 12 11 9 9 10 11 11 11 9 8 8 9 8 7 6 6 7 8 9 11 12 12 12 10 9 7 5 5 6 5 5 6 7 8 9 8 8 9 10 11 12 15 19 21 21 16 12 13 12 10 9 10 11 10 9 10 10 10 12 15 18 20 21
11 12 13 14 15 16 16 17 17 17 17 17 17 17 17 16 14 14 14 15 16 15 13 12 10 9 10 11 11 11 9 8 8 8 8 7 6 6 7 8 9 10 11 11 10 9 8 7 5 4 5 5 5 6 8 8 7 7 7 9 10 11 12 15 18 21 21 16 12 11 11 12 11 11 11 9 8 8 8 9 12 14 17 19 20
13 14 15 17 18 18 19 19 19 18 18 18 17 17 17 16 15 15 15 15 16 16 14 12 11 9 10 11 11 10 9 9 8 7 7 7 6 6 6 7 8 9 10 9 9 8 8 7 4 4 4 4 4 6 7 7 6 6 7 9 9 10 12 14 16 19 20 16 11 9 9 10 11 10 10 10 9 7 6 9 11 12 15 17 17
15 16 18 19 21 22 22 22 22 22 21 21 20 18 17 17 16 16 16 15 14 15 15 14 12 11 10 11 11 10 10 9 8 7 6 6 6 6 6 6 6 7 8 7 7 7 7 6 4 3 3 3 3 4 5 5 5 5 7 8 9 10 12 13 14 17 18 14 10 9 9 8 8 9 10 11 10 7 5 8 9 9 13 16 17
15 16 17 19 20 21 22 23 23 23 23 22 22 21 20 18 17 17 18 16 14 15 15 15 14 12 11 12 12 10 10 10 8 7 6 6 6 6 6 6 5 5 5 6 6 6 6 6 5 3 2 2 2 3 3 3 4 4 5 7 8 10 12 13 12 15 16 13 10 9 9 9 9 10 10 10 10 9 6 6 7 7 11 15 16
15 16 17 18 19 20 20 20 21 22 21 21 22 22 22 21 20 20 19 18 16 16 15 15 15 14 12 13 12 11 11 10 8 7 7 6 5 5 6 5 4 3 3 4 5 5 5 6 6 4 3 3 3 3 3 2 3 3 4 5 7 10 12 12 12 14 16 13 10 9 10 11 12 13 12 11 11 9 7 7 7 8 10 12 12
17 18 19 19 19 20 19 18 18 19 18 19 22 23 23 23 23 22 21 20 19 18 16 15 16 15 14 14 13 12 11 9 8 7 7 7 6 5 6 5 3 2 2 3 4 5 5 6 6 6 5 4 4 4 4 4 2 2 3 4 6 9 11 11 11 13 15 11 10 10 10 11 13 14 14 13 12 10 8 7 7 8 9 10 10
19 19 20 20 20 20 19 18 18 17 15 16 19 21 23 24 24 24 23 22 21 21 19 16 16 16 15 15 14 13 12 10 8 8 8 7 6 6 6 5 3 2 2 3 4 5 5 6 6 5 6 6 5 5 5 5 4 2 2 3 5 7 9 10 10 12 14 10 8 10 10 10 11 13 13 13 12 11 9 8 7 8 8 8 8
20 20 21 21 20 19 19 18 18 18 16 16 17 19 21 24 25 25 25 24 24 23 21 19 18 18 17 16 15 15 14 11 9 9 9 8 7 7 6 5 3 2 2 3 4 4 4 5 6 6 6 7 7 6 5 5 5 3 2 3 4 5 6 8 9 11 13 9 6 10 10 9 9 11 12 12 11 10 9 8 8 7 6 6 7
19 20 20 21 21 21 20 19 18 18 18 18 18 19 20 23 26 26 26 25 25 25 24 22 21 20 19 18 16 16 15 12 10 10 9 9 8 8 7 6 4 3 3 3 4 4 3 4 5 6 7 7 8 8 6 3 4 2 1 3 3 3 4 6 7 10 12 9 5 9 10 9 8 8 10 11 11 9 7 6 7 9 9 8 8
20 20 21 22 22 22 22 21 20 20 19 19 19 19 19 21 24 26 26 25 26 27 26 25 23 22 21 19 18 17 16 14 12 11 10 10 9 8 8 7 5 4 3 3 3 3 3 5 5 6 7 8 9 10 8 3 2 1 1 2 3 4 3 4 6 9 11 9 6 8 9 9 8 8 9 9 9 8 7 7 8 10 11 10 10
23 23 23 23 23 24 24 23 22 21 20 20 20 19 19 20 22 23 25 26 26 27 27 26 25 24 23 21 19 18 18 16 14 12 11 11 11 10 8 7 6 5 4 3 3 3 3 5 6 6 6 7 8 9 7 3 1 1 2 3 4 4 3 2 5 7 11 11 7 7 8 9 8 8 8 8 8 8 9 10 10 11 11 10 12
25 25 25 25 24 25 25 24 24 23 21 21 20 20 21 21 21 21 23 25 26 27 28 27 26 26 24 22 20 19 20 19 17 15 13 13 12 11 9 9 8 7 6 4 3 3 3 5 6 6 6 7 7 8 6 2 1 2 3 4 5 5 4 3 4 6 9 11 10 8 7 8 7 7 8 8 7 9 11 11 11 12 11 12 14
25 25 24 24 24 24 24 24 23 23 22 21 21 21 22 23 23 21 20 23 25 25 26 27 26 25 24 22 20 20 22 21 19 17 15 13 13 13 11 9 9 8 7 6 4 4 4 5 6 7 7 6 6 7 5 1 2 4 4 6 7 6 5 4 4 5 7 10 12 10 8 8 7 8 8 8 8 9 11 12 11 11 11 13 16
23 22 22 22 21 21 21 21 21 21 21 20 20 20 21 24 25 22 20 21 24 24 24 24 23 22 23 22 20 20 22 20 17 16 14 12 12 12 11 9 9 9 8 7 6 5 4 5 6 7 7 6 6 5 3 1 3 5 6 7 8 7 6 5 4 4 5 8 10 10 10 9 7 7 8 8 8 10 11 12 12 11 10 14 17
20 19 18 18 18 18 18 18 19 19 20 20 20 20 19 21 23 23 20 20 22 24 24 24 21 19 21 21 19 18 18 15 13 13 14 13 13 12 10 9 10 11 10 8 7 5 4 5 6 7 7 7 5 4 3 2 4 5 6 8 9 8 6 5 4 3 4 7 8 8 9 9 8 7 7 7 8 10 10 11 11 11 10 14 18
17 16 16 16 16 16 17 17 18 18 19 19 20 20 19 19 20 21 20 19 21 23 24 25 23 20 20 20 18 17 15 13 12 13 14 14 14 13 12 11 11 12 11 9 8 6 5 5 6 6 7 6 4 3 2 3 5 5 6 7 8 8 7 5 3 3 3 5 6 6 8 9 8 7 6 7 9 9 9 9 11 11 12 16 18
15 15 16 17 17 18 18 19 19 20 20 19 19 19 19 19 20 20 19 18 19 21 23 24 24 23 22 21 19 17 16 15 15 15 16 15 15 14 13 12 12 12 12 11 9 7 6 5 5 6 7 6 3 2 2 3 5 6 6 7 7 7 7 6 4 4 2 2 4 5 8 9 9 8 6 7 9 9 8 9 11 13 14 16 18
16 18 19 21 21 21 21 20 21 21 21 21 20 20 20 20 20 20 19 18 17 19 21 22 23 24 24 23 22 19 17 16 16 18 19 17 15 15 14 14 13 13 14 12 10 8 6 6 5 5 5 5 3 2 2 3 6 7 8 7 7 7 7 6 5 5 3 2 3 5 6 8 9 8 6 6 9 9 9 10 12 14 15 16 18
20 22 24 25 26 26 25 24 23 22 22 22 22 22 22 21 21 21 21 20 18 17 17 19 20 22 25 26 25 22 19 17 17 20 22 19 17 17 16 16 15 15 15 13 11 9 7 5 4 4 4 4 3 2 2 3 6 8 9 8 8 8 7 7 7 6 4 2 2 3 4 6 8 9 7 5 8 10 10 10 12 14 17 18 18
25 26 27 28 29 30 30 29 27 26 25 25 24 24 23 23 24 24 23 23 22 19 16 16 17 19 22 26 26 25 22 19 18 21 24 22 20 19 19 18 18 17 16 15 12 10 8 5 4 4 4 3 3 3 3 3 5 8 10 9 9 8 8 8 8 6 4 3 3 1 3 4 6 9 7 4 7 9 10 11 11 13 17 19 18
29 30 31 31 32 33 33 33 32 30 29 28 28 26 26 25 26 26 25 25 24 22 19 16 15 17 19 23 26 27 24 21 20 22 25 24 22 21 21 20 18 17 16 15 13 11 8 6 5 5 4 4 4 4 4 4 5 7 10 10 10 9 9 9 8 6 5 5 3 0 2 3 5 7 7 4 5 8 10 11 11 13 15 17 18
33 34 34 34 34 34 34 34 34 33 31 30 29 28 28 29 28 28 27 25 24 23 21 17 16 17 18 21 25 28 27 23 22 24 25 25 24 23 22 20 17 16 16 15 13 11 8 7 6 5 5 5 4 4 4 4 5 6 9 10 10 10 10 9 8 7 7 6 3 1 0 2 4 6 5 3 4 7 9 10 10 13 14 15 17
34 34 34 34 34 34 34 33 32 32 31 30 29 28 28 29 29 29 29 27 24 23 22 20 18 18 18 19 23 27 28 26 25 27 29 28 26 26 24 21 18 16 15 14 13 10 8 7 7 6 5 5 5 4 5 5 5 6 7 9 11 11 10 10 9 8 7 6 3 3 2 1 4 5 5 4 4 6 9 9 10 12 14 15 16
35 35 34 34 34 34 34 33 32 30 29 29 27 26 26 27 27 28 28 27 25 23 22 21 20 20 19 18 21 26 30 30 30 31 33 31 28 27 26 23 20 18 16 14 12 11 9 8 7 7 6 6 6 5 5 5 5 5 6 8 10 11 11 11 10 9 8 6 5 5 3 1 3 4 4 5 5 6 8 10 9 10 13 16 16
38 37 37 36 35 35 34 33 31 30 29 27 26 25 25 25 25 26 27 27 26 24 22 21 22 22 21 18 19 24 29 32 32 33 34 33 30 28 27 24 21 19 17 15 13 11 10 9 8 7 7 7 7 6 6 6 6 6 6 6 8 11 12 12 11 10 8 7 7 5 2 2 3 5 5 4 5 6 7 9 9 9 11 14 16
39 39 38 37 36 35 34 32 31 30 28 26 25 24 24 24 25 26 27 28 27 25 23 22 21 21 21 19 18 20 25 29 31 32 33 33 31 30 28 25 22 20 17 15 13 12 10 10 9 8 8 8 8 7 7 6 6 6 6 6 7 10 12 13 12 11 10 9 8 5 2 3 4 5 6 4 4 5 6 7 8 8 10 13 15
38 38 38 37 36 35 34 33 32 31 29 28 28 26 25 25 25 27 28 29 29 27 25 23 21 20 21 20 18 18 21 24 28 30 32 32 33 32 29 25 22 20 17 15 13 11 11 10 9 9 9 9 8 8 8 7 7 7 6 6 6 9 12 13 13 12 11 10 9 6 3 3 3 3 5 4 4 5 6 7 7 8 12 14 15
37 37 37 37 36 35 34 32 31 30 30 31 32 30 28 27 28 29 30 31 32 30 27 24 22 21 21 21 20 19 21 23 27 30 31 32 32 32 29 25 22 20 17 15 13 11 10 10 9 9 9 9 9 9 8 8 7 7 7 6 7 9 11 13 14 13 13 12 10 7 5 4 2 2 4 4 4 5 7 7 7 9 12 15 15
37 37 37 37 36 35 34 32 30 29 29 30 31 31 31 30 29 29 29 30 32 32 29 25 23 22 21 22 22 22 22 24 27 30 32 32 32 31 29 25 23 21 19 17 15 13 12 11 11 11 11 11 10 9 9 8 8 8 8 7 7 9 11 13 14 14 13 12 10 8 6 4 3 2 3 4 5 6 7 7 8 10 13 14 14
38 38 38 37 36 34 32 31 29 29 28 28 28 29 30 30 29 29 28 28 28 28 26 24 24 24 23 22 23 23 22 24 27 31 32 32 31 31 28 26 24 22 20 19 17 15 13 13 12 12 12 11 10 9 9 9 8 8 8 8 8 10 11 12 14 14 14 12 11 8 6 5 3 2 3 4 5 6 7 8 9 11 14 15 14
38 37 37 35 34 32 31 30 28 27 26 26 27 27 28 27 27 28 28 28 27 25 23 21 23 25 25 23 23 23 22 23 28 31 32 31 30 29 28 26 25 23 22 20 17 15 14 13 12 11 11 11 10 10 10 9 9 8 8 9 10 11 12 12 13 14 14 13 11 9 7 6 4 2 3 5 5 6 7 9 10 12 15 16 15
37 36 34 33 32 32 30 29 28 27 27 27 27 27 27 27 26 26 27 27 26 25 21 19 21 24 25 24 24 24 23 24 28 31 31 30 29 29 29 28 26 24 23 21 18 15 14 14 13 12 12 11 10 10 10 10 9 9 8 9 10 12 12 13 13 14 15 14 12 10 8 6 4 3 4 5 6 6 7 9 11 13 16 17 16
35 34 34 33 33 32 31 30 29 29 28 28 28 28 28 27 26 26 25 25 24 23 20 18 20 22 24 24 23 22 22 24 28 31 31 30 29 29 29 29 27 25 24 22 19 16 15 15 13 13 13 12 11 10 10 10 10 10 9 9 10 12 12 13 13 14 15 15 13 11 9 7 4 3 4 5 6 7 7 8 11 14 17 17 17
34 34 34 34 33 32 31 30 30 30 30 29 29 29 29 28 26 26 25 24 23 21 19 17 18 20 22 23 23 22 21 24 29 32 32 31 30 30 29 29 28 26 25 23 19 17 16 16 14 13 13 13 12 11 11 10 10 10 10 9 10 11 12 12 13 14 14 14 14 13 11 9 6 4 5 6 7 7 7 8 10 14 17 18 18
33 34 34 34 33 32 30 30 30 30 30 30 30 30 29 28 27 25 24 23 22 21 19 18 19 20 22 23 23 22 21 24 29 32 34 33 32 31 30 30 29 27 26 23 20 17 17 16 15 14 14 14 12 12 11 11 11 11 11 10 10 11 11 12 13 13 13 13 13 13 13 11 9 8 7 7 7 8 8 9 10 13 17 19 20
33 34 34 34 33 31 30 30 30 30 31 31 30 30 29 28 27 25 23 22 21 21 20 19 20 22 23 23 22 20 20 23 28 31 34 35 34 32 32 31 30 29 27 24 20 18 18 17 16 15 15 14 13 13 12 12 12 12 11 11 11 11 11 11 12 13 13 13 12 12 13 14 13 11 10 9 8 9 9 9 10 13 16 19 20
Wind_Direction
286 276 267 260 264 265 275 300 325 332 329 325 318 316 315 310 306 308 313 318 322 328 333 337 341 340 340 343 346 348 347 346 343 336 334 336 339 343 345 343 340 338 338 338 339 342 348 357 5 9 10 14 18 17 13 10 7 2 4 4 357 353 357 359 355 353 354 354 0 6 6 12 20 22 26 33 38 43 48 47 46 47 48 50 54
292 278 268 269 276 272 277 295 312 325 330 328 321 316 314 308 299 299 308 313 318 327 333 337 342 343 343 346 348 348 346 345 343 338 337 338 340 343 345 344 340 338 337 337 339 343 350 359 11 17 16 19 22 22 19 16 12 9 8 6 3 2 1 0 360 358 357 355 359 6 7 15 24 23 25 31 35 38 44 47 47 51 54 56 58
292 279 269 268 274 275 280 290 302 314 324 326 320 315 314 310 299 297 306 311 316 325 331 335 341 343 343 345 347 346 345 345 343 340 339 339 340 343 344 343 341 340 341 344 346 351 357 4 16 28 23 21 25 29 29 28 25 22 21 16 12 9 5 2 1 3 5 2 4 13 14 13 20 23 28 34 34 37 42 44 46 50 54 56 59
289 282 273 270 276 281 285 290 297 307 315 319 315 311 310 307 302 299 303 309 314 322 329 335 338 340 340 342 344 345 345 345 343 340 338 339 339 341 343 344 346 350 352 354 355 358 2 8 21 33 27 21 23 28 29 30 29 27 26 23 18 13 9 8 6 8 14 13 14 21 17 16 19 21 31 37 36 40 43 44 44 48 53 57 58
282 282 278 278 283 288 296 300 299 301 307 311 310 308 307 304 300 301 302 307 312 316 323 330 334 335 336 338 340 343 344 345 343 341 339 338 338 341 346 350 355 359 360 359 359 1 3 11 24 31 27 22 19 22 24 26 27 27 27 26 22 16 12 11 12 16 22 23 22 20 20 29 30 21 31 38 39 42 45 45 46 48 55 61 62
278 282 284 286 289 295 304 306 302 300 302 306 307 307 308 304 300 300 302 306 310 313 318 323 328 331 333 335 338 341 343 344 343 342 340 338 339 341 346 353 358 1 3 1 360 1 5 14 26 30 27 23 17 17 18 20 23 22 24 26 23 17 14 14 14 19 26 29 28 27 26 32 37 32 34 35 41 48 48 49 51 52 58 63 64
275 280 285 291 296 300 307 309 306 305 302 302 303 305 307 305 303 303 304 305 308 312 315 319 322 327 329 332 337 339 340 341 342 342 343 339 337 340 344 351 356 359 2 1 359 360 4 13 27 32 29 22 16 15 9 11 16 16 19 24 23 17 15 15 16 21 29 32 32 33 31 30 40 51 37 32 47 54 48 51 56 54 57 62 64
280 286 287 292 301 305 308 310 309 307 304 300 300 302 303 302 303 305 306 307 308 310 312 317 319 321 324 327 333 338 337 339 340 341 343 341 335 335 340 348 354 357 359 358 357 357 360 9 24 31 27 18 13 12 7 5 10 11 15 21 19 16 15 14 16 23 32 37 37 40 45 49 55 57 41 36 53 56 46 50 59 59 57 59 64
282 290 293 297 304 303 303 311 314 312 307 302 301 299 298 298 300 303 306 306 308 308 309 312 313 314 317 320 327 333 334 336 340 339 342 344 334 329 336 344 351 355 356 354 354 354 356 3 15 23 19 11 7 9 8 6 5 6 13 19 17 16 16 14 17 24 31 40 45 43 46 51 51 49 44 43 51 56 53 53 62 66 64 62 66
282 290 299 303 301 296 298 307 313 312 306 302 301 297 294 296 297 297 301 305 306 307 305 305 306 306 309 313 318 326 330 333 337 337 339 344 337 330 337 345 349 351 352 352 352 352 354 357 3 6 360 355 356 1 5 4 359 0 11 18 17 16 18 16 18 23 27 34 45 46 43 47 47 44 50 54 53 57 63 65 68 71 71 71 71
284 291 300 303 298 297 299 302 306 307 304 305 305 299 290 289 292 293 297 302 302 302 300 299 300 300 301 304 308 316 322 327 332 334 336 341 338 336 342 346 348 349 347 349 351 351 351 352 356 358 347 336 342 352 358 357 353 359 13 20 18 18 21 20 20 23 25 28 41 48 44 48 57 56 58 64 65 64 69 75 74 72 75 81 82
286 292 299 300 300 301 301 301 303 302 301 304 307 303 290 285 290 294 294 295 297 298 298 296 297 296 294 296 300 307 315 322 327 330 333 336 334 337 343 345 348 348 344 346 349 349 348 346 348 357 355 339 337 345 352 353 356 8 20 24 21 22 24 23 22 24 23 26 40 48 45 53 69 72 70 72 71 71 79 82 75 68 73 82 87
289 294 300 302 302 302 300 299 302 302 301 301 300 299 293 287 291 295 292 290 291 291 293 295 296 295 294 292 295 303 310 316 322 326 329 330 328 332 339 342 346 347 342 343 346 346 345 342 341 352 360 350 343 346 354 2 11 20 25 25 24 27 27 25 25 25 23 26 42 52 53 62 72 76 82 81 73 73 89 93 78 67 74 84 89
297 300 303 303 303 301 298 298 300 301 301 300 297 295 295 291 290 293 293 291 289 287 289 293 295 294 293 291 293 299 306 312 317 322 324 326 325 329 334 338 343 343 339 341 343 342 342 341 341 353 4 359 352 354 7 21 25 26 28 26 24 26 27 26 26 26 24 28 46 57 60 64 65 71 81 81 76 77 89 95 83 74 83 91 95
310 309 307 306 304 301 298 297 298 298 299 300 298 296 295 293 290 290 293 293 289 285 285 287 288 287 288 289 289 294 301 308 312 315 319 324 325 326 330 335 338 338 338 341 341 338 340 342 346 2 10 5 1 9 24 31 30 28 29 23 20 22 23 24 26 26 24 32 52 62 62 62 65 74 77 75 77 80 83 90 87 82 89 97 99
319 317 314 313 309 305 300 296 294 295 295 296 298 298 296 295 291 285 287 291 290 286 283 281 280 280 281 283 284 287 294 299 302 307 313 320 324 324 325 331 334 333 336 340 340 336 336 339 348 10 15 9 9 19 30 35 33 31 25 18 17 20 20 22 26 25 23 33 58 68 64 65 70 75 72 68 72 74 81 97 96 89 91 98 100
326 323 321 318 314 309 304 298 294 293 291 292 296 300 297 293 289 285 283 286 289 289 286 279 275 275 276 277 278 281 285 287 292 301 307 313 320 320 319 325 329 330 334 341 340 334 334 336 348 12 14 7 9 19 28 34 34 30 23 18 18 21 22 22 25 24 21 30 55 77 79 74 74 75 70 63 62 63 85 107 105 96 95 97 97
324 320 319 316 312 307 303 298 294 291 290 291 292 294 295 292 288 284 282 282 285 289 288 281 277 275 272 272 273 274 275 278 283 292 298 303 310 314 313 317 325 330 335 341 341 336 335 337 345 8 5 354 3 15 21 26 28 26 24 21 19 23 23 21 22 23 21 27 50 75 84 77 72 79 76 67 64 66 88 113 114 106 101 98 98
319 316 315 314 311 309 305 301 296 291 291 294 292 289 290 290 285 280 279 279 281 285 286 285 283 277 268 268 271 271 270 272 276 281 286 291 297 303 306 310 323 333 339 344 344 342 344 346 352 4 357 331 332 351 3 13 20 20 21 23 24 25 21 17 19 21 20 27 48 71 80 73 67 75 79 74 72 72 78 105 120 121 111 103 100
321 319 318 317 315 313 309 305 301 296 293 295 294 288 283 282 281 279 278 276 276 278 282 284 284 279 268 264 267 268 268 270 270 272 274 277 285 296 298 303 320 335 341 350 351 350 356 359 359 3 0 324 300 303 312 331 6 19 15 18 26 27 20 15 17 17 15 25 48 62 70 74 74 77 81 79 77 75 77 97 122 140 130 112 100
325 321 319 317 315 313 310 306 303 299 294 292 291 287 281 277 277 277 276 274 273 274 277 281 283 280 268 262 263 265 267 270 269 266 265 266 272 285 290 295 310 328 335 353 2 4 5 2 360 4 6 346 313 296 287 283 304 2 2 6 23 28 21 16 17 14 11 23 56 65 67 79 84 84 84 82 77 73 76 94 127 152 145 124 104
328 324 320 318 316 314 311 306 299 295 293 290 288 287 283 277 274 273 272 271 270 272 274 276 279 279 270 261 260 261 261 266 269 264 260 259 262 274 282 285 293 304 309 340 8 18 12 1 358 2 8 3 343 315 290 274 270 284 310 348 16 25 21 17 16 10 8 22 75 84 79 85 88 87 87 86 82 78 77 88 119 150 156 143 122
327 325 322 321 320 319 318 313 304 296 290 287 287 289 286 279 274 270 268 268 268 270 272 273 274 276 272 263 258 257 257 259 266 265 258 253 255 265 272 274 276 276 289 327 4 21 12 354 349 352 1 9 3 346 314 274 265 272 291 332 2 20 23 20 15 7 5 19 92 107 99 96 93 91 90 88 86 85 84 88 105 128 152 164 153
321 319 318 317 318 318 320 321 319 312 303 294 290 289 289 284 278 272 268 268 268 268 269 271 272 274 274 268 259 256 256 256 262 264 258 250 251 260 263 261 259 260 277 315 354 13 7 349 338 336 343 355 1 359 349 292 261 273 326 350 15 45 42 24 12 3 6 21 95 119 112 105 98 90 86 82 80 83 90 97 103 112 125 141 151
318 316 315 314 313 313 315 317 320 320 317 310 301 295 293 290 284 277 271 269 268 267 266 269 270 270 272 271 263 257 255 254 256 259 256 249 248 253 256 251 247 250 263 299 338 354 0 353 339 327 330 342 352 356 354 323 251 255 31 39 61 84 73 29 9 3 11 31 85 114 107 99 91 79 72 67 65 71 89 107 114 117 124 133 142
315 314 312 311 309 309 310 312 314 315 316 314 310 304 300 296 289 284 277 272 269 266 263 264 267 266 267 269 265 257 252 250 251 253 252 248 245 247 250 245 240 244 253 272 310 326 343 351 344 330 324 332 343 349 349 334 211 160 93 88 88 104 116 59 21 11 17 33 63 95 97 92 85 74 67 61 57 68 87 104 116 120 125 135 140
312 311 310 309 307 307 307 306 308 308 307 308 306 304 303 299 294 289 283 276 272 268 264 262 263 264 266 267 264 257 251 248 249 250 247 244 243 244 246 243 237 240 247 258 282 302 325 343 342 330 318 321 335 344 348 345 166 143 123 112 106 118 141 113 50 29 30 38 48 62 78 82 79 75 74 67 58 68 83 97 111 114 119 134 141
314 311 309 307 305 305 305 304 305 304 301 299 297 295 295 295 292 290 287 282 277 273 269 267 265 266 267 267 265 261 253 249 252 253 248 244 243 244 243 241 239 239 242 252 267 283 309 336 337 324 310 311 328 339 341 334 159 147 136 126 121 129 148 130 73 46 43 49 51 55 65 75 80 84 83 73 63 71 83 92 103 107 118 139 143
322 318 313 308 304 302 302 302 303 303 301 298 294 289 288 288 289 289 288 285 281 277 274 273 271 269 268 267 269 266 258 256 261 260 250 242 242 242 241 240 240 239 240 248 260 270 294 329 333 318 303 303 321 333 329 240 164 156 147 138 133 140 152 134 93 62 54 52 49 51 58 65 74 85 85 76 71 75 80 87 96 104 124 145 146
328 325 321 316 310 306 303 302 303 303 303 302 299 295 291 290 290 291 290 286 282 277 274 274 274 271 265 264 269 271 264 263 269 259 244 234 230 231 234 237 237 236 237 244 253 260 281 319 327 313 297 294 307 324 313 207 172 165 157 150 144 144 150 140 109 85 69 50 38 41 50 52 58 72 81 81 77 74 75 82 91 105 134 151 147
332 330 328 325 320 317 315 313 311 309 307 306 303 300 298 295 294 295 293 289 284 280 276 273 272 268 259 255 260 264 256 248 246 240 231 226 223 223 230 236 237 236 238 244 253 256 272 308 318 304 291 285 289 307 292 212 182 171 162 156 151 147 151 152 135 118 89 46 32 41 50 48 49 60 76 89 88 80 78 88 99 116 143 154 148
332 332 332 329 326 323 321 319 318 317 314 312 308 304 301 297 296 297 297 294 288 283 279 274 269 264 257 250 250 251 247 240 234 223 214 214 218 222 228 235 236 235 236 241 247 251 266 298 309 293 281 275 266 272 265 214 191 181 170 162 156 153 157 159 150 140 122 55 42 54 54 48 46 50 66 94 102 94 90 103 119 130 144 151 146
329 329 329 327 325 324 322 320 318 317 316 316 314 311 307 302 297 295 294 293 289 284 281 277 270 263 255 247 242 241 241 242 235 218 208 208 214 220 227 232 233 232 234 238 243 246 260 286 295 279 269 263 244 230 232 209 196 190 180 172 165 162 160 159 154 150 142 105 71 61 47 38 39 44 56 95 114 113 108 113 125 138 147 150 144
324 323 322 322 321 321 319 317 314 311 310 310 311 311 310 308 304 299 295 292 288 283 280 279 275 265 255 247 240 233 232 237 234 219 209 210 214 217 223 229 229 227 231 235 238 242 252 269 272 260 254 245 223 209 208 203 200 195 187 179 174 169 164 157 154 151 146 136 109 60 32 28 38 45 53 96 124 128 125 120 125 140 147 147 142
319 318 317 317 317 316 314 312 310 306 302 301 301 302 303 303 304 303 302 301 297 289 281 278 277 272 261 252 244 235 227 229 230 219 210 210 213 214 218 224 225 226 229 230 228 230 238 246 242 235 231 218 204 203 200 197 199 197 192 187 182 176 167 159 154 152 149 148 141 60 12 28 46 46 48 89 131 138 137 133 132 138 145 147 145
316 316 315 314 314 312 310 308 307 304 300 296 295 294 293 293 294 296 297 298 299 297 291 281 275 273 265 254 247 240 229 224 224 218 210 210 213 215 218 222 223 226 231 231 226 225 229 229 222 215 208 196 193 195 194 191 196 198 195 193 190 183 173 162 156 154 154 155 151 82 0 38 51 45 46 80 136 144 142 142 144 145 149 153 152
315 314 313 312 311 309 307 306 304 302 299 296 293 290 286 285 287 289 289 290 292 295 295 288 274 267 261 252 246 240 231 222 220 218 213 212 217 220 222 224 226 228 231 230 225 224 226 224 217 208 195 184 182 185 190 188 190 195 197 198 195 188 178 168 159 155 157 161 163 170 91 53 40 41 54 84 140 148 141 140 149 155 155 155 156
314 313 313 312 311 309 308 306 303 301 299 296 294 290 285 281 280 282 284 286 287 287 289 289 281 271 262 252 246 240 230 220 216 215 213 213 216 219 220 221 223 227 231 230 227 225 223 218 213 206 194 183 176 181 192 193 188 191 197 200 199 194 182 170 161 157 160 163 161 155 148 61 18 35 65 94 137 155 148 141 146 158 162 161 161
317 316 316 315 313 311 309 307 303 300 297 294 292 289 285 280 278 277 278 280 280 278 279 283 285 282 273 258 247 239 230 221 215 213 213 213 213 215 217 217 216 219 223 225 224 223 220 214 208 202 195 186 179 181 192 196 192 191 195 199 201 197 186 171 162 162 162 158 151 151 148 34 16 42 67 96 124 142 148 145 143 153 163 167 167
321 319 318 316 314 311 309 306 303 299 295 291 289 287 283 280 278 275 273 273 273 273 272 272 276 280 279 267 252 241 234 227 219 214 212 211 211 214 215 214 212 213 215 216 216 217 217 211 203 198 194 187 181 185 193 196 193 193 195 195 197 196 188 174 164 163 161 153 151 154 134 68 75 68 59 83 116 123 131 136 136 143 158 167 170
320 319 318 317 316 313 310 308 305 302 297 290 286 283 281 280 279 276 273 271 270 270 269 265 265 270 274 269 258 246 239 233 226 219 213 210 211 215 215 211 209 209 209 209 210 213 213 208 199 195 193 187 181 186 193 193 190 191 193 193 190 190 187 178 167 163 161 155 155 155 121 90 88 64 48 64 111 120 124 129 128 134 147 157 162
321 320 320 319 318 315 312 309 306 304 300 295 289 283 278 274 273 272 271 271 270 269 267 263 260 262 267 266 258 247 237 232 228 223 215 209 212 218 217 210 206 206 205 205 207 209 209 206 198 192 190 186 181 184 189 188 186 186 188 189 186 183 184 180 171 164 162 161 161 160 140 117 98 50 40 62 102 120 130 133 128 129 137 144 151
323 322 321 320 319 316 313 309 306 303 300 298 296 293 287 278 272 269 268 269 269 269 266 260 255 256 260 261 257 246 235 228 225 220 213 208 212 218 217 211 205 203 200 200 202 202 202 202 195 187 183 180 179 184 187 186 184 182 181 182 177 174 178 179 173 166 164 164 165 164 155 142 122 54 46 68 100 118 130 137 136 134 135 139 149
324 323 322 320 319 317 314 311 309 305 302 300 298 297 295 291 285 280 274 269 268 268 265 258 252 251 253 255 254 245 234 227 222 216 210 207 211 216 216 211 205 202 197 194 195 195 196 195 190 184 181 179 180 183 184 185 185 183 178 174 165 163 169 175 174 169 167 167 166 165 161 151 132 74 55 73 99 116 128 137 143 146 144 144 154
326 324 322 321 319 317 313 311 309 306 304 301 298 295 295 294 292 289 284 277 272 271 266 256 248 246 246 248 249 245 236 227 220 214 208 206 209 214 214 209 205 201 195 191 191 195 196 193 188 185 182 182 182 180 179 182 185 183 176 166 154 151 158 167 171 171 170 168 165 164 159 151 140 98 65 75 97 118 131 137 144 150 151 151 159
327 324 323 322 321 320 317 315 311 307 303 301 297 294 294 293 291 290 287 284 281 278 269 255 245 243 242 241 244 244 237 227 219 212 206 204 206 210 210 207 204 201 194 190 190 196 197 192 186 181 178 179 181 178 177 178 181 182 179 169 155 149 151 158 163 166 165 162 161 161 158 154 149 117 77 81 99 120 133 138 143 151 154 155 161
328 326 325 325 324 323 320 316 313 308 305 302 298 294 293 291 289 287 286 285 284 282 271 252 242 241 240 239 241 242 235 226 219 211 204 200 202 205 206 205 203 199 194 189 189 194 195 190 184 177 173 174 177 178 175 175 176 179 180 174 160 152 151 154 157 159 158 156 156 158 158 158 155 122 87 86 99 118 134 139 142 148 154 156 160
331 330 330 329 327 324 320 317 315 312 309 306 302 299 297 293 290 287 285 284 285 283 271 250 239 240 239 238 241 242 235 225 219 212 203 197 197 200 203 204 202 198 192 188 187 190 192 188 182 176 171 171 174 176 174 174 175 177 178 175 165 158 156 156 157 158 159 158 157 156 159 163 163 136 107 100 102 111 127 138 142 147 153 156 159
335 333 331 329 326 323 320 318 316 314 311 308 305 302 299 295 291 287 283 280 280 280 270 249 237 236 236 236 240 242 234 225 220 213 202 194 192 195 199 202 202 197 191 187 186 189 189 187 183 177 171 169 173 176 173 172 176 177 176 175 169 163 162 164 163 163 164 165 164 164 166 169 169 154 131 117 107 107 117 131 140 148 154 157 158
337 334 331 328 325 322 320 318 316 314 312 310 307 303 299 295 290 286 281 275 272 271 266 250 234 229 231 234 238 239 232 223 219 213 203 193 190 192 196 200 201 196 190 186 186 189 189 185 182 179 173 170 172 176 173 173 178 180 177 176 173 166 166 170 172 171 171 172 172 176 177 173 165 157 146 130 114 108 112 120 132 145 155 160 160
338 335 332 329 326 324 322 321 319 318 315 312 308 303 299 294 289 285 280 273 265 262 261 250 229 220 224 229 234 236 231 222 217 213 204 196 192 192 195 199 199 194 188 184 185 189 190 185 181 180 177 173 173 177 175 174 178 181 177 176 174 169 167 173 176 176 175 174 174 175 172 164 158 155 150 137 123 116 114 116 125 138 150 156 159